EHI
0 0 0 0 0 0 0 0 0 0 0 0 0 0 0 0 0 0 0 0 0 0 0 0 0 0 0 0 0 0 0 0 0 0 0 0 0 0 0 0 0 0 0
0 0 0 0 0 0 0 0 0 0 0 0 0 0 0 0 0 0 0 0 0 0 0 0 0 0 0 0 0 0 0 0 0 0 0 0 0 0 0 0 0 0 0
0 0 0 0 0 0 0 0 0 0 0 0 0 0 0 0 0 0 0 0 0 0 0 0 0 0 0 0 0 0 0 0 0 0 0 0 0 0 0 0 0 0 0
0 0 0 0 0 0 0 0 0 0 0 0 0 0 0 0 0 0 0 0 0 0 0 0 0 0 0 0 0 0 0 0 0 0 0 0 0 0 0 0 0 0 0
0 0 0 0 0 0 0 0 0 0 0 0 0 0 0 0 0 0 0 0 0 0 0 0 0 0 0 0 0 0 0 0 0 0 0 0 0 0 0 0 0 0 0
0 0 0 0 0 0 0 0 0 0 0 0 0 0 0 0 0 0 0 0 0 0 0 0 0 0 0 0 0 0 0 0 0 0 0 0 0 0 0 0 0 0 0
0 0 0 0 0 0 0 0 0 0 0 0 0 0 0 0 0 0 0 0 0 0 0 0 0 0 0 0 0 0 0 0 0 0 0 0 0 0 0 0 0 0 0
0 0 0 0 0 0 0 0 0 0 0 0 0 0 0 0 0 0 0 0 0 0 0 0 0 0 0 0 0 0 0 0 0 0 0 0 0 0 0 0 0 0 0
0 0 0 0 0 0 0 0 0 0 0 0 0 0 0 0 0 0 0 0 0 0 0 0 0 0 0 0 0 0 0 0 0 0 0 0 0 0 0 0 0 0 0
0 0 0 0 0 0 0 0 0 0 0 0 0 0 0 0 0 0 0 0 0 0 0 0 0 0 0 0 0 0 0 0 0 0 0 0 0 0 0 0 0 0 0
0 0 0 0 0 0 0 0 0 0 0 0 0 0 0 0 0 0 0 0 0 0 0 0 0 0 0 0 0 0 0 0 0 0 0 0 0 0 0 0 0 0 0
0 0 0 0 0 0 0 0 0 0 0 0 0 0 0 0 0 0 0 0 0 0 0 0 0 0 0 0 0 0 0 0 0 0 0 0 0 0 0 0 0 0 0
0 0 0 0 0 0 0 0 0 0 0 0 0 0 0 0 0 0 0 0 0 0 0 0 0 0 0 0 0 0 0 0 0 0 0 0 0 0 0 0 0 0 0
0 0 0 0 0 0 0 0 0 0 0 0 0 0 0 0 0 0 0 0 0 0 0 0 0 0 0 0 0 0 0 0 0 0 0 0 0 0 0 0 0 0 0
0 0 0 0 0 0 0 0 0 0 0 0 0 0 0 0 0 0 0 0 0 0 0 0 0 0 0 0 0 0 0 0 0 0 0 0 0 0 0 0 0 0 0
0 0 0 0 0 0 0 0 0 0 0 0 0 0 0 0 0 0 0 0 0 0 0 0 0 0 0 0 0 0 0 0 0 0 0 0 0 0 0 0 0 0 0
0 0 0 0 0 0 0 0 0 0 0 0 0 0 0 0 0 0 0 0 0 0 0 0 0 0 0 0 0 0 0 0 0 0 0 0 0 0 0 0 0 0 0
0 0 0 0 0 0 0 0 0 0 0 0 0 0 0 0 0 0 0 0 0 0 0 0 0 0 0 0 0 0 0 0 0 0 0 0 0 0 0 0 0 0 0
0 0 0 0 0 0 0 0 0 0 0 0 0 0 0 0 0 0 0 0 0 0 0 0 0 0 0 0 0 0 0 0 0 0 0 0 0 0 0 0 0 0 0
0 0 0 0 0 0 0 0 0 0 0 0 0 0 0 0 0 0 0 0 0 0 0 0 0 0 0 0 0 0 0 0 0 0 0 0 0 0 0 0 0 0 0
0 0 0 0 0 0 0 0 0 0 0 0 0 0 0 0 0 0 0 0 0 0 0 0 0 0 0 0 0 0 0 0 0 0 0 0 0 0 0 0 0 0 0
0 0 0 0 0 0 0 0 0 0 0 0 0 0 0 0 0 0 0 0 0 0 0 0 0 0 0 0 0 0 0 0 0 0 0 0 0 0 0 0 0 0 0
0 0 0 0 0 0 0 0 0 0 0 0 0 0 0 0 0 0 0 0 0 0 0 0 0 0 0 0 0 0 0 0 0 0 0 0 0 0 0 0 0 0 0
0 0 0 0 0 0 0 0 0 0 0 0 0 0 0 0 0 0 0 0 0 0 0 0 0 0 0 0 0 0 0 0 0 0 0 0 0 0 0 0 0 0 0
0 0 0 0 0 0 0 0 0 0 0 0 0 0 0 0 0 0 0 0 0 0 0 0 0 0 0 0 0 0 0 0 0 0 0 0 0 0 0 0 0 0 0
0 0 0 0 0 0 0 0 0 0 0 0 0 0 0 0 0 0 0 0 0 0 0 0 0 0 0 0 0 0 0 0 0 0 0 0 0 0 0 0 0 0 0
Wind_Speed
4 4 3 3 3 2 2 2 2 1 1 1 1 2 2 3 2 1 1 4 2 2 6 8 8 8 9 9 9 10 10 11 11 12 12 13 13 13 13 13 13 13 14
4 4 3 3 2 1 1 1 2 1 1 1 2 3 3 3 2 2 1 2 3 1 4 6 7 8 8 9 10 10 11 12 12 13 13 13 14 14 14 14 14 14 15
5 4 3 3 2 2 1 1 1 1 1 1 2 3 2 2 2 2 1 1 2 3 2 4 6 7 9 10 11 11 11 12 13 13 14 14 14 15 15 15 15 15 16
6 5 3 3 3 2 2 1 1 1 1 1 2 2 2 2 2 1 1 1 2 2 2 1 3 6 8 10 11 11 12 13 13 14 14 15 15 15 16 16 16 17 17
7 5 4 3 4 3 2 1 1 0 1 1 2 2 2 2 1 1 1 2 2 2 1 2 2 4 7 9 11 12 13 13 14 15 15 16 16 16 17 17 17 18 18
7 6 4 4 4 3 2 2 1 1 0 1 2 3 3 2 0 0 1 1 2 1 1 0 1 3 6 10 11 12 13 14 14 15 16 16 17 17 18 18 18 19 19
7 6 4 4 4 3 3 3 2 1 0 1 2 3 3 1 1 1 1 1 0 1 1 1 0 1 2 8 10 12 13 14 15 16 17 17 17 18 18 19 19 19 20
8 6 6 5 5 3 3 3 2 1 0 1 1 2 3 4 2 0 0 0 1 1 1 2 2 2 2 1 5 10 12 14 16 17 17 18 18 19 19 20 20 20 21
8 7 7 5 5 4 3 3 3 3 1 0 2 2 1 1 3 3 2 0 1 1 2 2 2 3 3 2 2 6 11 13 16 18 18 19 19 20 20 21 21 21 22
8 8 7 6 6 4 4 4 3 3 3 1 0 1 2 2 1 3 4 3 3 3 3 2 2 3 3 1 3 7 11 14 17 18 19 19 20 21 21 21 22 22 22
8 8 7 6 6 5 5 5 4 3 3 3 2 1 0 1 1 2 4 4 4 3 2 2 2 2 2 1 2 6 12 15 17 19 19 20 21 21 22 22 22 23 23
6 8 7 7 6 5 5 5 4 4 3 3 2 2 2 2 1 2 3 4 4 4 4 3 2 3 2 2 4 10 13 16 18 19 20 20 21 22 22 23 23 23 24
5 8 7 7 6 6 6 6 4 4 4 3 3 2 2 2 2 1 1 3 4 4 4 3 3 2 2 1 3 10 12 17 18 20 20 21 21 22 22 23 24 24 25
7 9 8 7 7 7 7 6 4 4 4 4 3 3 2 2 1 2 2 2 3 4 3 4 2 2 2 2 5 9 7 16 19 20 21 21 21 22 23 23 24 24 25
7 10 9 8 8 8 7 7 4 4 4 4 4 3 2 2 2 2 2 3 3 4 5 4 2 2 3 3 7 5 5 14 20 21 22 22 22 22 23 24 24 25 25
10 11 10 9 8 8 8 6 5 5 5 4 3 4 3 2 2 2 3 3 3 4 6 4 3 5 6 6 11 7 6 19 20 21 22 22 23 23 24 24 25 25 25
11 12 11 10 10 9 8 7 6 6 5 4 4 4 5 4 3 3 3 3 4 4 8 7 4 5 6 6 7 5 6 6 8 19 22 23 24 24 24 25 25 25 26
11 11 11 10 10 9 8 8 7 7 6 6 5 5 5 4 4 4 3 4 4 5 6 10 6 4 6 6 6 7 7 7 6 17 22 23 24 24 25 25 25 26 26
10 10 10 10 10 9 8 8 7 7 6 6 6 5 5 5 5 4 4 4 4 5 5 6 7 4 4 5 6 7 8 7 8 13 18 20 22 24 25 25 26 26 26
11 11 10 9 9 9 8 7 7 6 5 5 5 5 5 6 6 6 5 5 5 5 5 6 7 6 5 5 5 6 7 4 6 9 13 15 20 23 24 25 26 26 25
10 10 9 9 8 7 7 8 7 6 6 5 5 6 6 8 10 8 6 5 5 4 5 6 7 7 6 5 5 5 8 6 6 6 6 7 9 8 10 17 22 24 25
9 9 9 9 9 7 11 13 9 6 6 6 6 6 6 8 11 14 15 14 11 7 6 6 7 8 9 7 6 7 7 8 7 3 5 7 6 8 8 7 18 24 24
9 9 9 9 8 9 14 14 12 7 6 6 6 5 5 6 9 6 10 15 13 17 16 10 8 9 9 8 8 8 7 9 9 6 7 9 6 7 7 11 22 23 23
9 9 8 9 8 9 14 14 13 7 5 6 6 6 6 6 6 7 6 6 7 8 10 8 8 9 8 8 8 9 10 9 8 5 5 8 7 6 9 8 18 21 20
7 7 8 8 8 9 13 13 11 5 5 6 6 6 6 6 11 13 7 6 7 7 12 17 18 17 19 21 17 8 6 7 10 5 3 4 5 7 7 7 10 16 19
7 7 6 7 8 7 12 13 11 4 5 5 5 6 10 10 13 14 7 6 8 8 7 8 10 12 11 13 18 9 5 7 8 6 2 3 4 5 6 4 4 6 10
Wind_Direction
165 164 173 168 181 170 171 206 238 249 261 280 291 300 308 306 302 300 169 178 178 333 336 337 341 342 344 345 347 349 348 344 341 340 339 337 335 332 326 321 318 315 312
163 162 171 164 167 157 180 210 241 247 308 323 311 306 300 308 320 330 298 160 155 88 3 358 359 359 358 357 354 351 348 344 341 338 334 332 330 329 325 322 319 316 314
168 167 168 166 170 169 189 236 290 306 288 287 292 299 311 307 310 318 11 98 126 127 79 20 6 1 357 351 347 344 343 340 336 333 331 328 327 325 322 319 317 315 312
173 167 165 170 169 163 178 196 241 266 289 303 317 319 314 302 307 358 7 69 99 119 125 72 1 350 346 343 341 340 338 335 332 330 328 325 323 321 318 316 314 312 310
170 164 168 172 168 164 175 198 209 168 329 335 320 303 300 305 319 350 18 91 92 97 133 186 283 315 330 337 337 336 335 335 333 330 327 324 322 319 317 315 314 311 309
170 166 166 172 166 161 173 187 199 168 124 3 328 306 284 261 222 87 94 115 145 172 148 149 276 303 325 329 333 335 335 336 334 331 329 326 323 320 318 316 314 311 308
169 165 164 170 162 163 174 177 155 129 67 48 2 322 307 267 139 134 117 56 226 196 201 275 328 10 331 335 336 333 335 335 333 332 329 326 324 321 319 317 315 311 309
167 169 170 166 160 161 169 164 141 130 120 98 93 10 347 347 346 327 96 325 319 2 347 351 3 348 331 336 330 336 334 332 331 330 329 327 325 322 319 317 315 313 311
170 169 171 163 161 161 165 163 149 146 154 131 110 124 106 299 323 317 293 292 340 0 343 337 343 340 331 340 340 335 327 328 327 327 326 325 323 320 318 317 315 314 312
169 168 168 164 160 157 156 160 146 143 137 149 100 119 161 161 132 316 320 332 350 332 314 324 339 324 317 330 327 324 324 324 325 324 324 324 322 321 320 318 317 314 312
167 166 166 160 157 155 155 147 140 142 144 156 158 156 138 54 173 193 283 307 319 302 305 305 298 299 302 314 311 309 320 322 321 321 321 321 320 320 318 317 316 314 312
167 167 162 160 159 154 152 148 148 152 153 151 148 151 157 173 212 204 252 285 293 288 295 275 265 266 270 285 297 310 315 317 317 316 317 317 317 316 315 315 314 312 310
168 170 161 161 158 152 149 147 150 158 160 159 166 177 175 186 186 188 236 279 294 295 292 280 255 251 271 281 288 302 307 312 312 313 313 313 313 312 312 312 311 310 309
169 164 161 162 157 152 150 150 152 163 161 165 177 175 177 202 186 186 199 238 299 299 290 282 301 273 291 287 281 299 299 307 310 311 311 310 309 309 310 310 310 309 308
162 162 162 161 157 155 156 155 161 167 165 173 178 184 189 204 197 203 199 184 205 275 288 279 295 307 312 297 299 298 289 306 311 312 311 310 309 309 309 309 308 308 306
159 160 163 161 159 159 160 159 163 168 170 178 177 185 202 205 205 205 207 213 204 221 262 266 273 292 301 304 306 310 305 312 311 310 309 309 309 310 309 308 307 306 305
158 163 165 165 164 165 164 164 171 171 177 184 185 195 212 207 208 216 217 221 226 223 259 273 266 283 293 296 303 301 301 297 301 308 308 308 309 309 308 308 307 306 305
162 164 165 166 168 167 168 171 176 176 182 190 196 200 215 213 217 223 224 231 236 233 250 276 282 281 283 288 292 294 299 301 295 303 306 307 307 308 308 308 309 308 306
161 163 164 167 169 169 171 174 175 178 185 193 196 202 213 213 229 232 233 238 244 253 251 269 282 281 284 289 294 292 288 287 293 301 304 304 305 306 307 308 309 308 307
163 166 166 167 168 169 171 172 172 177 186 196 202 206 211 215 226 232 239 243 247 258 263 270 280 285 282 283 285 292 294 281 289 296 296 300 302 305 306 307 306 306 306
164 164 162 164 165 168 174 171 174 181 188 201 211 215 219 225 233 239 242 237 236 249 260 268 277 285 286 291 286 284 292 293 282 278 282 289 295 292 295 299 302 302 303
160 160 165 167 171 178 181 182 181 184 191 202 217 225 230 235 245 254 261 262 255 253 257 261 273 277 281 281 286 288 293 299 295 269 283 290 289 288 289 286 298 304 307
161 165 169 171 176 180 183 190 195 190 195 208 218 226 238 240 250 243 258 266 268 269 268 267 268 271 278 280 284 285 281 282 286 286 293 293 289 287 290 300 307 308 310
168 172 175 175 175 184 188 196 200 199 203 214 219 223 231 239 239 245 240 245 248 256 264 268 261 265 269 272 268 276 280 283 277 275 279 290 295 290 298 296 302 306 312
171 173 174 175 178 186 192 196 198 194 211 224 226 227 234 239 255 264 259 254 259 259 271 274 274 278 283 289 291 288 286 291 295 291 265 269 290 301 293 286 295 310 318
169 168 175 179 180 185 194 198 200 194 213 226 230 233 244 251 261 267 259 253 263 265 264 272 276 283 285 286 291 284 274 282 290 293 268 282 295 313 302 279 290 309 311